Weather History for KVSH - June, 2013

Change the Weather History Date:

Saturday, June 22, 2013

  Actual Average (KMAI) Record (KMAI)
Temperature  
Mean Temperature 84 °F 81 °F  
Max Temperature 89 °F 92 °F 102 °F (2011)
Min Temperature 80 °F 71 °F 64 °F (2007)
Degree Days  
Heating Degree Days 0    
Month to date heating degree days  
Since 1 June heating degree days  
Since 1 July heating degree days  
Cooling Degree Days 20    
Month to date cooling degree days  
Year to date cooling degree days  
Since 1 June cooling degree days  
Growing Degree Days 34 (Base 50)    
Moisture  
Dew Point 71 °F    
Average Humidity 67    
Maximum Humidity 79    
Minimum Humidity 52    
Precipitation  
Precipitation 0.13 in 0.20 in 1.61 in (2004)
Month to date precipitation 4.06  
Year to date precipitation 26.28  
Sea Level Pressure  
Sea Level Pressure 30.06 in    
Wind  
Wind Speed 4 mph (ESE)    
Max Wind Speed 10 mph    
Max Gust Speed 18 mph    
Visibility 10 miles    
Events      
T = Trace of Precipitation, MM = Missing Value Source: NWS Daily Summary

Daily Weather History Graph

Daily Weather History Graph

Search for Another Location

Airport or City:

Trip Planner

Search our weather history database for the weather conditions in past years. The results will help you decide how hot, cold, wet, or windy it might be!

Date:

Astronomy

Jun. 22, 2013 Rise Set
Actual Time 5:40 AM CDT 7:48 PM CDT
Civil Twilight 5:12 AM CDT 8:16 PM CDT
Nautical Twilight 4:38 AM CDT 8:50 PM CDT
Astronomical Twilight 4:02 AM CDT 9:26 PM CDT
Moon 7:06 PM CDT (6/22) 4:48 AM CDT (6/22)
Length of Visible Light 15h 04m
Length of Day
14h 08m
Waxing Gibbous, 99% of the Moon is Illuminated
Jun 22
Waxing Gibbous
Jun 23
Full
Jun 29
Last Quarter
Jul 8
New
Jul 15
First Quarter

Hourly Weather History & Observations

Time (CDT) Temp. Heat Index Dew Point Humidity Pressure Visibility Wind Dir Wind Speed Gust Speed Precip Events Conditions
12:15 AM 82.4 °F 87.2 °F 71.6 °F 70% 30.07 in 10.0 mi Calm Calm - N/A   Clear
12:35 AM 82.4 °F 87.2 °F 71.6 °F 70% 30.07 in 10.0 mi SE 4.6 mph - N/A   Clear
12:55 AM 82.4 °F 87.2 °F 71.6 °F 70% 30.07 in 10.0 mi SE 3.5 mph - N/A   Clear
1:15 AM 82.4 °F 87.2 °F 71.6 °F 70% 30.06 in 10.0 mi SE 3.5 mph - N/A   Clear
1:35 AM 82.4 °F 87.2 °F 71.6 °F 70% 30.06 in 10.0 mi Calm Calm - N/A   Clear
1:55 AM 82.4 °F 87.2 °F 71.6 °F 70% 30.05 in 10.0 mi Calm Calm - N/A   Clear
2:15 AM 82.4 °F 87.2 °F 71.6 °F 70% 30.05 in 10.0 mi East 4.6 mph - N/A   Clear
2:35 AM 82.4 °F 87.2 °F 71.6 °F 70% 30.05 in 10.0 mi Calm Calm - N/A   Clear
2:55 AM 82.4 °F 87.2 °F 71.6 °F 70% 30.05 in 10.0 mi Calm Calm - N/A   Clear
3:15 AM 82.4 °F 87.2 °F 71.6 °F 70% 30.05 in 10.0 mi Calm Calm - N/A   Clear
3:35 AM 80.6 °F 84.6 °F 71.6 °F 74% 30.05 in 10.0 mi North - - N/A   Clear
3:55 AM 80.6 °F 84.6 °F 71.6 °F 74% 30.05 in 10.0 mi Calm Calm - N/A   Partly Cloudy
4:15 AM 80.6 °F 85.4 °F 73.4 °F 79% 30.05 in 10.0 mi Calm Calm - N/A   Partly Cloudy
4:35 AM 80.6 °F 85.4 °F 73.4 °F 79% 30.05 in 10.0 mi Calm Calm - N/A   Clear
4:55 AM 80.6 °F 85.4 °F 73.4 °F 79% 30.05 in 10.0 mi NE 4.6 mph - N/A   Clear
5:15 AM 80.6 °F 85.4 °F 73.4 °F 79% 30.06 in 10.0 mi NE 4.6 mph - N/A   Partly Cloudy
5:35 AM 80.6 °F 85.4 °F 73.4 °F 79% 30.06 in 10.0 mi NE 4.6 mph - N/A   Partly Cloudy
5:55 AM 80.6 °F 84.6 °F 71.6 °F 74% 30.07 in 10.0 mi Calm Calm - N/A   Clear
6:15 AM 80.6 °F 84.6 °F 71.6 °F 74% 30.07 in 10.0 mi ENE 3.5 mph - N/A   Clear
6:35 AM 80.6 °F 84.6 °F 71.6 °F 74% 30.07 in 10.0 mi Calm Calm - N/A   Clear
6:55 AM 80.6 °F 83.9 °F 69.8 °F 70% 30.08 in 10.0 mi NE 4.6 mph - N/A   Clear
7:15 AM 80.6 °F 83.9 °F 69.8 °F 70% 30.08 in 10.0 mi NE 3.5 mph - N/A   Clear
7:35 AM 80.6 °F 83.9 °F 69.8 °F 70% 30.09 in 10.0 mi ENE 4.6 mph - N/A   Clear
7:55 AM 80.6 °F 84.6 °F 71.6 °F 74% 30.09 in 10.0 mi NNE 6.9 mph - N/A   Clear
8:15 AM 82.4 °F 87.2 °F 71.6 °F 70% 30.10 in 10.0 mi NE 5.8 mph - N/A   Clear
8:55 AM 84.2 °F 88.4 °F 69.8 °F 62% 30.10 in 10.0 mi NE 8.1 mph - N/A   Clear
9:15 AM 84.2 °F 89.6 °F 71.6 °F 66% 30.09 in 10.0 mi Calm Calm - N/A   Clear
9:35 AM 87.8 °F 93.8 °F 71.6 °F 58% 30.09 in 10.0 mi SSE 3.5 mph - N/A   Clear
9:55 AM 86.0 °F 91.8 °F 71.6 °F 62% 30.09 in 10.0 mi NE 8.1 mph - N/A   Scattered Clouds
10:15 AM 84.2 °F 89.6 °F 71.6 °F 66% 30.10 in 10.0 mi NNE 5.8 mph - N/A   Scattered Clouds
10:35 AM 84.2 °F 88.4 °F 69.8 °F 62% 30.10 in 9.0 mi East 5.8 mph - N/A   Mostly Cloudy
10:55 AM 80.6 °F 83.2 °F 68.0 °F 65% 30.11 in 3.0 mi ENE 4.6 mph 18.4 mph 0.13 in   Overcast
11:15 AM 80.6 °F 84.6 °F 71.6 °F 74% 30.11 in 10.0 mi ENE 3.5 mph - N/A   Overcast
11:35 AM 82.4 °F 87.2 °F 71.6 °F 70% 30.12 in 10.0 mi East 6.9 mph - N/A   Scattered Clouds
11:55 AM 82.4 °F 86.3 °F 69.8 °F 66% 30.12 in 10.0 mi SE 9.2 mph 16.1 mph N/A   Mostly Cloudy
12:15 PM 82.4 °F 86.3 °F 69.8 °F 66% 30.11 in 10.0 mi SSE 5.8 mph - N/A   Mostly Cloudy
12:35 PM 84.2 °F 87.3 °F 68.0 °F 58% 30.11 in 10.0 mi ENE 6.9 mph - N/A   Partly Cloudy
1:35 PM 87.8 °F 92.6 °F 69.8 °F 55% 30.10 in 10.0 mi SE 3.5 mph - N/A   Partly Cloudy
1:55 PM 87.8 °F 93.8 °F 71.6 °F 58% 30.10 in 10.0 mi NE 10.4 mph - N/A   Clear
2:15 PM 87.8 °F 93.8 °F 71.6 °F 58% 30.09 in 10.0 mi SE 3.5 mph - N/A   Unknown
2:35 PM 89.6 °F 96.2 °F 71.6 °F 55% 30.08 in 10.0 mi NE 8.1 mph - N/A   Unknown
2:55 PM 89.6 °F 96.2 °F 71.6 °F 55% 30.08 in 10.0 mi East 6.9 mph - N/A   Mostly Cloudy
3:15 PM 84.2 °F 88.4 °F 69.8 °F 62% 30.08 in 10.0 mi SSE 3.5 mph 16.1 mph N/A   Mostly Cloudy
3:35 PM 84.2 °F 89.6 °F 71.6 °F 66% 30.07 in 10.0 mi SSE 5.8 mph - N/A   Clear
3:55 PM 84.2 °F 89.6 °F 71.6 °F 66% 30.07 in 10.0 mi SSE 8.1 mph - N/A   Clear
4:15 PM 86.0 °F 90.4 °F 69.8 °F 58% 30.06 in 10.0 mi SSE 6.9 mph - N/A   Clear
4:35 PM 87.8 °F 91.4 °F 68.0 °F 52% 30.06 in 10.0 mi East 3.5 mph - N/A   Clear
4:55 PM 89.6 °F 94.7 °F 69.8 °F 52% 30.05 in 10.0 mi SE 4.6 mph - N/A   Clear
5:15 PM 89.6 °F 96.2 °F 71.6 °F 55% 30.05 in 10.0 mi SSE 9.2 mph - N/A   Clear
5:35 PM 87.8 °F 93.8 °F 71.6 °F 58% 30.04 in 10.0 mi SSE 9.2 mph - N/A   Partly Cloudy
5:55 PM 87.8 °F 93.8 °F 71.6 °F 58% 30.03 in 10.0 mi SSE 9.2 mph - N/A   Partly Cloudy
6:15 PM 86.0 °F 91.8 °F 71.6 °F 62% 30.03 in 10.0 mi SE 8.1 mph 16.1 mph N/A   Partly Cloudy
6:35 PM 87.8 °F 93.8 °F 71.6 °F 58% 30.03 in 10.0 mi South 9.2 mph - N/A   Clear
6:55 PM 84.2 °F 89.6 °F 71.6 °F 66% 30.03 in 10.0 mi SSE 6.9 mph - N/A   Clear
7:15 PM 84.2 °F 89.6 °F 71.6 °F 66% 30.02 in 10.0 mi SE 5.8 mph - N/A   Clear
7:35 PM 84.2 °F 89.6 °F 71.6 °F 66% 30.02 in 10.0 mi SE 6.9 mph - N/A   Partly Cloudy
7:55 PM 84.2 °F 89.6 °F 71.6 °F 66% 30.02 in 10.0 mi SSE 6.9 mph - N/A   Clear
8:15 PM 82.4 °F 87.2 °F 71.6 °F 70% 30.02 in 10.0 mi SE 5.8 mph - N/A   Clear
8:35 PM 82.4 °F 87.2 °F 71.6 °F 70% 30.01 in 10.0 mi SE 3.5 mph - N/A   Clear
8:55 PM 82.4 °F 87.2 °F 71.6 °F 70% 30.02 in 10.0 mi SSE 4.6 mph - N/A   Clear
9:15 PM 82.4 °F 87.2 °F 71.6 °F 70% 30.02 in 10.0 mi SSE 4.6 mph - N/A   Clear
9:35 PM 82.4 °F 87.2 °F 71.6 °F 70% 30.03 in 10.0 mi SSE 4.6 mph - N/A   Clear
9:55 PM 82.4 °F 87.2 °F 71.6 °F 70% 30.04 in 10.0 mi SE 5.8 mph - N/A   Clear
10:15 PM 82.4 °F 87.2 °F 71.6 °F 70% 30.04 in 10.0 mi East 3.5 mph - N/A   Clear
10:35 PM 82.4 °F 87.2 °F 71.6 °F 70% 30.05 in 10.0 mi SE 3.5 mph - N/A   Clear
10:55 PM 82.4 °F 87.2 °F 71.6 °F 70% 30.05 in 10.0 mi Calm Calm - N/A   Clear
11:15 PM 82.4 °F 87.2 °F 71.6 °F 70% 30.05 in 10.0 mi SSE 3.5 mph - N/A   Clear
11:35 PM 82.4 °F 87.2 °F 71.6 °F 70% 30.05 in 10.0 mi Calm Calm - N/A   Clear
11:55 PM 82.4 °F 87.2 °F 71.6 °F 70% 30.06 in 10.0 mi Calm Calm - N/A   Clear